Regional Weather Roundup
Issued by NWS

Home | Current Version | Previous Version | Text Only | Print | Product List | Glossary On
Versions: 1 2 3 4 5 6 7 8 9 10 11 12 13 14 15 16 17 18 19 20 21 22 23 24 25 26 27 28 29 30 31 32 33 34 35 36 37 38 39 40 41 42 43 44 45 46 47 48 49 50
000
ASUS43 KDMX 101301
RWRIA

WEATHER ROUNDUP FOR IOWA
NATIONAL WEATHER SERVICE DES MOINES IA
700 AM CST SAT DEC 10 2016

NOTE: "FAIR" INDICATES FEW OR NO CLOUDS BELOW 12,000 FEET WITH NO
SIGNIFICANT WEATHER AND/OR OBSTRUCTIONS TO VISIBILITY.

* - THESE STATIONS ARE NOT NWS STATIONS...THUS NOT UNDER NWS
QUALITY CONTROL.  THEY ALSO DO NOT REPORT WEATHER SUCH
AS PRECIPITATION OR FOG.

IAZ001>003-012>014-020>022-031>034-043>046-101400-
   NORTHWEST IOWA

CITY           SKY/WX    TMP DP  RH WIND       PRES   REMARKS
CARROLL *      CLOUDY    21  16  79 E6        30.43S WCI  14
CHEROKEE *     CLOUDY    17  14  91 E7        30.42F WCI   7
DENISON *      MIX PCPN  21  16  79 CALM      30.39F
LE MARS *      CLOUDY    18  14  86 SE7       30.42F WCI   8
ORANGE CITY *  CLOUDY    14  12  92 E7        30.39F WCI   4
SHELDON *      LGT SNOW  10   9  92 E9        30.40S WCI  -2
SIOUX CITY     CLOUDY    21  14  74 E7        30.42F WCI  12
SPENCER        LGT SNOW  10   6  84 E9        30.44F FOG     WCI  -3
STORM LAKE *   CLOUDY    14  12  92 E10       30.41S WCI   1
$$

IAZ055>058-069>071-079>083-090>094-101400-
   SOUTHWEST IOWA

CITY           SKY/WX    TMP DP  RH WIND       PRES   REMARKS
ATLANTIC *     CLOUDY    23  16  74 CALM      30.41F
AUDUBON *      CLOUDY    21  16  79 SE3       30.41F
CLARINDA *     CLOUDY    25  16  68 CALM      30.44F
COUNCIL BLFS * LGT SNOW  21  18  86 SE7       30.38F WCI  13
CRESTON *      CLOUDY    23  14  68 SE7       30.43F WCI  15
HARLAN  *      MIX PCPN  21  16  79 SE5       30.44F WCI  15
LAMONI         CLOUDY    23  13  65 SE6       30.44F WCI  16
RED OAK *      CLOUDY    25  16  68 E5        30.41F WCI  19
SHENANDOAH *   CLOUDY    25  18  74 SE8       30.41F WCI  16
$$

IAZ047>049-059>061-072>074-084-101400-
   CENTRAL IOWA

CITY           SKY/WX    TMP DP  RH WIND       PRES   REMARKS
AMES           CLOUDY    20  15  81 SE5       30.47F WCI  13
ANKENY *       CLOUDY    21  14  73 SE6       30.48F WCI  14
BOONE *        CLOUDY    19  12  73 SE6       30.44F WCI  11
CHARITON *     CLOUDY    23  16  74 SE7       30.47S WCI  15
DES MOINES     CLOUDY    23  13  65 SE6       30.47F WCI  16
GRINNELL*      CLOUDY    21  15  78 CALM      30.49S
KNOXVILLE *    CLOUDY    23  12  63 SE5       30.48S WCI  17
MARSHALLTOWN   CLOUDY    20  13  74 CALM      30.48S
NEWTON *       CLOUDY    21  16  79 SE5       30.48S WCI  15
PELLA *        CLOUDY    22  16  77 SE3       30.51F
PERRY *        CLOUDY    22  17  80 E3        30.45F
$$

IAZ004>006-015-016-023>025-035-036-101400-
   NORTH CENTRAL IOWA

CITY           SKY/WX    TMP DP  RH WIND       PRES   REMARKS
ALGONA *       CLOUDY    10   7  85 NE8       30.45F WCI  -1
CLARION *      CLOUDY    16  12  86 NE8       30.46F WCI   5
ESTHERVILLE    CLOUDY     7   4  87 NE7       30.45S WCI  -5
FORT DODGE *   CLOUDY    16  10  79 NE7       30.46S WCI   6
MASON CITY     CLOUDY    11   7  84 N3        30.49S
WEBSTER CITY * CLOUDY    18  16  93 NE6       30.44F WCI   9
IOWA FALLS *   CLOUDY    19  14  82 CALM      30.47F
$$

IAZ007>011-017>019-026>030-037>042-050>054-066-101400-
   NORTHEAST IOWA

CITY           SKY/WX    TMP DP  RH WIND       PRES   REMARKS
CEDAR RAPIDS   CLOUDY    19  17  92 CALM      30.50R
CHARLES CITY * CLOUDY    12   9  85 N6        30.48S WCI   3
CLINTON *      CLOUDY    17  15  92 CALM      30.52F
DECORAH *      FLURRIES  10   7  85 N5        30.46F WCI   2
DUBUQUE        CLOUDY    13  11  92 SW3       30.49R
MONTICELLO *   CLOUDY    18  14  86 CALM      30.50S
OELWEIN *      CLOUDY    16  16 100 CALM      30.48S
WATERLOO       CLOUDY    18  14  84 CALM      30.49S
$$

IAZ064-065-067-068-078-101400-
   EAST CENTRAL IOWA

CITY           SKY/WX    TMP DP  RH WIND       PRES   REMARKS
DAVENPORT      CLOUDY    20  14  77 SW6       30.52F WCI  12
IOWA CITY      CLOUDY    22  15  75 S3        30.54R
MUSCATINE *    CLOUDY    23  16  74 CALM      30.55R
QUAD CITIES    CLOUDY    21  14  74 SW3       30.53F
$$

IAZ062-063-075>077-085>089-095>099-101400-
   SOUTHEAST IOWA

CITY           SKY/WX    TMP DP  RH WIND       PRES   REMARKS
BURLINGTON     CLOUDY    23  17  78 SW3       30.53R
FAIRFIELD *    CLOUDY    23  14  68 S5        30.52S WCI  17
FORT MADISON * CLOUDY    23  16  74 CALM      30.55R
KEOKUK *       CLOUDY    23  18  80 CALM      30.53F
OSKALOOSA *    CLOUDY    22  17  83 S6        30.51S WCI  14
CENTERVILLE *  CLOUDY    23  14  68 CALM      30.49F
OTTUMWA        CLOUDY    23  14  68 SE5       30.49F WCI  17
WASHINGTON *   CLOUDY    21  18  86 CALM      30.54R
$$

ABBREVIATIONS USED IN REMARKS
   TC - TEMPERATURES IN CELSIUS
  WCI - WIND CHILL INDEX
   HX - HEAT INDEX
  VSB - VISIBILITY
$$




USA.gov is the U.S. government's official web portal to all federal, state and local government web resources and services.